Regional Weather Roundup
Issued by NWS

Home | Current Version | Previous Version | Graphics & Text | Print | Product List | Glossary On
Versions: 1 2 3 4 5 6 7 8 9 10 11 12 13 14 15 16 17 18 19 20 21 22 23 24 25 26 27 28 29 30 31 32 33 34 35 36 37 38 39 40 41 42 43 44 45 46 47 48 49 50
000
ASUS43 KDTX 231210
RWRMI
MICHIGAN HOURLY REGIONAL WEATHER ROUNDUP
NATIONAL WEATHER SERVICE DETROIT/PONTIAC MI
700 AM EST SUN NOV 23 2014

NOTE: "FAIR" INDICATES FEW OR NO CLOUDS BELOW 12,000 FEET WITH NO
SIGNIFICANT WEATHER AND/OR OBSTRUCTION TO VISIBILITY.

MIZ047>049-052>055-059>063-066>070-074>076-081>083-231300-
SOUTHEAST LOWER MICHIGAN

CITY           SKY/WX    TMP DP  RH WIND       PRES   REMARKS
ADRIAN         CLOUDY    43  42  97 S7        29.93F
6HR MIN TEMP:  43; 6HR MAX TEMP:  48; 6HR PCP: TRACE;

ALMA           CLOUDY    47  46  93 S9        29.85R
ANN ARBOR      LGT RAIN  44  42  93 S8        29.93S FOG
BAD AXE        CLOUDY    46  45  97 S9        29.87S
6HR MIN TEMP:  42; 6HR MAX TEMP:  46;

DETROIT CITY   LGT RAIN  48  42  80 S10       29.95R
6HR MIN TEMP:  47; 6HR MAX TEMP:  52; 6HR PCP: TRACE;

DETROIT        LGT RAIN  45  43  93 S10       29.95S
6HR MIN TEMP:  44; 6HR MAX TEMP:  49; 6HR PCP:  0.02;

FLINT          CLOUDY    49  44  83 S9        29.89S
6HR MIN TEMP:  47; 6HR MAX TEMP:  51;

GROSSE ILE     CLOUDY    39  37  93 S7        29.95R FOG
HILLSDALE      CLOUDY    45  45 100 S6        29.90F FOG
6HR MIN TEMP:  45; 6HR MAX TEMP:  51;

HOWELL         CLOUDY    46  44  92 S8        29.89S

CITY           SKY/WX    TMP DP  RH WIND       PRES   REMARKS
JACKSON        CLOUDY    47  43  86 S12       29.90S
6HR MIN TEMP:  47; 6HR MAX TEMP:  51; 6HR PCP: TRACE;

LAMBERTVILLE   CLOUDY    46  43  87 S7        29.95F
LANSING        CLOUDY    48  44  86 S14       29.87S
6HR MIN TEMP:  48; 6HR MAX TEMP:  51; 6HR PCP: TRACE;

LAPEER         NOT AVBL
MASON          CLOUDY    47  44  89 S6        29.89R
MONROE         DRIZZLE   46  45  93 S9        29.94S
MT. CLEMENS    CLOUDY    46  46 100 SW10      29.91R
                                      6HR PCP: TRACE;

PONTIAC        CLOUDY    45  42  89 S8        29.91R
6HR MIN TEMP:  45; 6HR MAX TEMP:  48;

PORT HOPE        N/A     46  42  86 S5        29.85F
6HR MIN TEMP:  37; 6HR MAX TEMP:  47;

PORT HURON     CLOUDY    45  41  87 S8        29.93R
TRI CITIES     CLOUDY    49  45  86 S8        29.86S
6HR MIN TEMP:  43; 6HR MAX TEMP:  50;

YPSILANTI      LGT RAIN  49  43  80 S13       29.94S
6HR MIN TEMP:  47; 6HR MAX TEMP:  50; 6HR PCP:  0.07;

$$
MIZ043>046-050>051-056>058-064>065-071>073-077>080-231300-
SOUTHWEST LOWER MICHIGAN

CITY           SKY/WX    TMP DP  RH WIND       PRES   REMARKS
BATTLE CREEK   LGT RAIN  49  44  83 S15       29.86F
6HR MIN TEMP:  49; 6HR MAX TEMP:  51; 6HR PCP:  0.03;

BENTON HARBOR  CLOUDY    50  42  74 S15       29.80F
6HR MIN TEMP:  48; 6HR MAX TEMP:  51; 6HR PCP:  0.01;

BIG RAPIDS     CLOUDY    44  44 100 S3        29.80R FOG
6HR MIN TEMP:  41; 6HR MAX TEMP:  46;

COLDWATER      RAIN      47  46  93 S7        29.88F
6HR MIN TEMP:  47; 6HR MAX TEMP:  51;

HOLLAND        CLOUDY    50  45  83 S10       29.81F
6HR MIN TEMP:  50; 6HR MAX TEMP:  54;

GRAND RAPIDS   CLOUDY    47  43  86 S13       29.83S
6HR MIN TEMP:  46; 6HR MAX TEMP:  47;

KALAMAZOO      CLOUDY    47  44  90 S10       29.85F
6HR MIN TEMP:  47; 6HR MAX TEMP:  50; 6HR PCP:  0.03;

MARSHALL       CLOUDY    46  43  88 S12G18    29.88S
MUSKEGON       CLOUDY    51  44  77 S17G25    29.79S
6HR MIN TEMP:  49; 6HR MAX TEMP:  51;

$$
MIZ016>042-231300-
NORTHERN LOWER MICHIGAN

CITY           SKY/WX    TMP DP  RH WIND       PRES   REMARKS
ALPENA         FOG       38  38 100 SE5       29.80F VSB 1/4
6HR MIN TEMP:  35; 6HR MAX TEMP:  39;

BEAVER ISLAND  CLOUDY    46  45  98 S8        29.70S FOG
6HR MIN TEMP:  38; 6HR MAX TEMP:  46;

BELLAIRE       CLOUDY    44  43  96 S3        29.74F FOG
CADILLAC       FOG       42  42 100 S13       29.76S VSB 1/2
CHARLEVOIX     CLOUDY    44  44 100 SE8       29.74F FOG
6HR MIN TEMP:  38; 6HR MAX TEMP:  44;

FRANKFORT      CLOUDY    48  47  94 S10G16    29.72S FOG
GAYLORD        FOG       41  41 100 S7        29.75S VSB 1/4
6HR MIN TEMP:  36; 6HR MAX TEMP:  42;

GRAYLING       FOG       42  42 100 S5        29.78S VSB 3/4
6HR MIN TEMP:  36; 6HR MAX TEMP:  42;

HARBOR SPRINGS FOG       42  42  97 CALM      29.74S VSB 1
HOUGHTON LAKE  FOG       42  41  96 S8        29.79F VSB 1/2
6HR MIN TEMP:  40; 6HR MAX TEMP:  42;

MANISTEE       CLOUDY    46  45  93 S7        29.75S
OSCODA         CLOUDY    43  43 100 S5        29.83S FOG
PELLSTON       FOG       38  37  97 S5        29.75F VSB 1/2
6HR MIN TEMP:  35; 6HR MAX TEMP:  40;

TRAVERSE CITY  CLOUDY    47  44  90 VRB6      29.72F FOG
6HR MIN TEMP:  41; 6HR MAX TEMP:  47;

$$
MIZ007>008-015-231300-
EASTERN UPPER MICHIGAN

CITY           SKY/WX    TMP DP  RH WIND       PRES   REMARKS
KINROSS        CLOUDY    37  37 100 SE13      29.74F VSB 1/2
6HR MIN TEMP:  34; 6HR MAX TEMP:  37;

MACKINAC ISLAN CLOUDY    41  41 100 SE7       29.73F FOG
6HR MIN TEMP:  38; 6HR MAX TEMP:  41;

NEWBERRY       FOG       38  38 100 SE10G16   29.68F VSB 1/4
S. S. MARIE    FOG       35  34  96 E7        29.74F VSB 1/4
6HR MIN TEMP:  34; 6HR MAX TEMP:  35; 6HR PCP:  0.01;

$$
MIZ004>006-011>014-085-231300-
CENTRAL UPPER MICHIGAN

CITY           SKY/WX    TMP DP  RH WIND       PRES   REMARKS
MANISTIQUE     LGT RAIN  41  41 100 SE7       29.66F VSB<1/4
ESCANABA       CLOUDY    43  39  87 S10       29.63S
6HR MIN TEMP:  37; 6HR MAX TEMP:  43;

MENOMINEE      CLOUDY    45  43  93 S9        29.64S
6HR MIN TEMP:  37; 6HR MAX TEMP:  45;

SAWYER-GWINN   SNOW      37  37 100 S13       29.58F VSB 1/4
$$
MIZ001>003-009>011-084-231300-
WESTERN UPPER MICHIGAN

CITY           SKY/WX    TMP DP  RH WIND       PRES   REMARKS
IRON MOUNTAIN  FOG       37  36  96 SE6       29.59S VSB 1/4
6HR MIN TEMP:  34; 6HR MAX TEMP:  37;

HOUGHTON       CLOUDY    36  33  89 E10       29.52S FOG
6HR MIN TEMP:  33; 6HR MAX TEMP:  36;

COPPER HARBOR    N/A     39  36  89 SW14G26   29.53F
6HR MIN TEMP:  36; 6HR MAX TEMP:  39;

IRONWOOD       CLOUDY    43  41  93 SW10G18   29.44S
6HR MIN TEMP:  36; 6HR MAX TEMP:  43;

$$

ABBREVIATIONS USED IN REMARKS
   TC - TEMPERATURE IN CELSIUS
  WCI - WIND CHILL INDEX
   HX - HEAT INDEX
  VSB - VISIBILITY



USA.gov is the U.S. government's official web portal to all federal, state and local government web resources and services.